Voltar ao catálogo

COSMOS 2251 DEB

AtivoLEO
NORAD 37985·DEBRIS·🇷🇺 Russia

Lançado Jun 16, 1993 de Plesetsk Cosmodrome

Loading…

Próximas Passagens (próximas 24 horas)

TLE

EnvelhecendoSource: Space-Track

Época: Sep 12, 2026, 08:45 UTC

1 37985U 93036BQL 26255.36492865  .00000063  00000-0  31013-4 0  9997
2 37985  74.0243 123.4836 0021585 186.0123 174.0774 14.35550669688436

Acompanhe COSMOS 2251 DEB em tempo real com AllMySat

Download on the App Store